This demonstration page uses our WeatherBlox Daily Observations layout. Learn more.

Left ArrowRight Arrow

39.51506, -84.39828

Hourly Observations for November 21, 2020

Temp ( °F °C ) Dew Point ( °F °C ) Humidity (%) Winds ( mph kmh ) Pressure ( in mb ) Visibility ( mi km ) Precip ( " mm )
12:15 am 00:15 Cloudy 56 13.4 51 10.5 83 83 WSW 3 6 30.4 1029 10 16.0934 0 0
12:35 am 00:35 Cloudy 56 13.1 51 10.5 84 84 Calm 30.4 1030 10 16.0934 0 0
12:55 am 00:55 Cloudy 55 12.9 51 10.4 85 85 Calm 30.4 1030 10 16.0934 0 0
1:15 am 01:15 Cloudy 55 12.6 51 10.6 88 88 Calm 30.4 1030 10 16.0934 0 0
1:35 am 01:35 Cloudy 55 12.8 51 10.6 87 87 Calm 30.4 1030 10 16.0934 0 0
1:55 am 01:55 Cloudy 55 12.7 51 10.6 87 87 Calm 30.4 1030 10 16.0934 0 0
2:15 am 02:15 Cloudy 55 12.5 51 10.6 88 88 Calm 30.4 1030 10 16.0934 0 0
2:35 am 02:35 Cloudy with Light Rain 52 11.1 51 10.6 97 97 Calm 30.42 1030 10 16.0934 0 0
2:55 am 02:55 Cloudy 54 12 51 10.6 91 91 NE 3 6 30.41 1030 10 16.0934 0 0
3:15 am 03:15 Cloudy with Drizzle 54 12.2 49 9.6 84 84 ENE 3 6 30.41 1030 10 16.0934 0 0
3:35 am 03:35 Cloudy with Light Rain 53 11.9 49 9.4 85 85 NE 3 6 30.41 1030 10 16.0934 0 0
3:55 am 03:55 Cloudy with Light Rain 52 11.3 48 9.1 86 86 NE 9 15 30.43 1030 10 16.0934 0 0
4:15 am 04:15 Cloudy with Light Rain 50 10 49 9.3 95 95 NE 7 11 30.42 1030 5 8.0467 0.02 0.508
4:35 am 04:35 Cloudy with Light Rain 50 9.8 48 9.1 95 95 NE 8 13 30.43 1030 10 16.0934 0.03 0.762
4:55 am 04:55 Cloudy with Light Rain 49 9.5 47 8.5 94 94 NE 8 13 30.43 1030 10 16.0934 0.03 0.762
5:15 am 05:15 Cloudy with Light Rain 48 8.9 45 7.2 89 89 NE 8 13 30.44 1031 10 16.0934 0 0
5:35 am 05:35 Cloudy 48 8.7 44 6.6 87 87 ENE 8 13 30.44 1031 10 16.0934 0 0
5:55 am 05:55 Cloudy with Light Rain 47 8.6 44 6.6 87 87 ENE 6 9 30.45 1031 10 16.0934 0 0
6:15 am 06:15 Cloudy with Light Rain 47 8.2 44 6.6 90 90 ENE 8 13 30.46 1032 7 11.26538 0.01 0.254
6:35 am 06:35 Cloudy with Light Rain 46 8 44 6.6 91 91 ENE 7 11 30.46 1032 7 11.26538 0.01 0.254
6:55 am 06:55 Cloudy with Light Rain 46 7.9 44 6.5 91 91 ENE 7 11 30.47 1032 10 16.0934 0.02 0.508
7:15 am 07:15 Cloudy with Light Rain 46 7.7 44 6.4 92 92 ENE 8 13 30.48 1032 10 16.0934 0 0
7:35 am 07:35 Cloudy with Light Rain 46 7.5 43 5.9 90 90 NE 6 9 30.49 1032 10 16.0934 0 0
7:55 am 07:55 Cloudy 45 7.3 42 5.8 90 90 ENE 7 11 30.49 1032 10 16.0934 0 0
8:15 am 08:15 Cloudy 45 7.2 42 5.8 91 91 E 6 9 30.49 1032 10 16.0934 0 0
8:35 am 08:35 Cloudy 45 7.2 43 5.9 92 92 ENE 3 6 30.5 1033 10 16.0934 0 0
8:55 am 08:55 Cloudy with Light Rain 45 7.3 43 5.9 91 91 E 3 6 30.5 1033 10 16.0934 0 0
9:15 am 09:15 Cloudy with Light Rain 45 7.1 42 5.8 92 92 NE 7 11 30.51 1033 10 16.0934 0.01 0.254
9:35 am 09:35 Cloudy with Light Rain 45 7 43 5.9 93 93 NE 6 9 30.52 1033 10 16.0934 0.01 0.254
9:55 am 09:55 Cloudy with Light Rain 45 7.1 43 5.9 92 92 NE 6 9 30.52 1033 10 16.0934 0.01 0.254
10:15 am 10:15 Cloudy with Light Rain 45 7.1 43 6.1 93 93 ENE 3 6 30.52 1033 10 16.0934 0 0
10:35 am 10:35 Cloudy 45 7.1 43 5.9 92 92 ENE 7 11 30.52 1033 10 16.0934 0 0
10:55 am 10:55 Cloudy 45 7.2 43 6.2 93 93 E 5 7 30.51 1033 10 16.0934 0 0
11:15 am 11:15 Cloudy 45 7.4 43 6.3 93 93 ENE 8 13 30.51 1033 10 16.0934 0 0
11:35 am 11:35 Cloudy 46 7.5 44 6.4 93 93 ENE 7 11 30.5 1033 10 16.0934 0 0
11:55 am 11:55 Cloudy 45 7.4 43 6.2 92 92 ENE 6 9 30.5 1033 10 16.0934 0 0
12:15 pm 12:15 Cloudy 45 7.4 43 6.1 92 92 NE 8 13 30.5 1033 10 16.0934 0 0
12:35 pm 12:35 Cloudy 46 7.5 43 6.1 91 91 ENE 7 11 30.49 1032 10 16.0934 0 0
12:55 pm 12:55 Cloudy 46 7.5 43 5.9 90 90 E 7 11 30.48 1032 10 16.0934 0 0
1:15 pm 13:15 Cloudy 46 7.5 43 5.9 90 90 ENE 7 11 30.48 1032 10 16.0934 0 0
1:35 pm 13:35 Cloudy with Light Rain 45 7.4 43 5.9 90 90 ENE 5 7 30.47 1032 10 16.0934 0 0
1:55 pm 13:55 Cloudy with Drizzle 45 7.4 43 6.2 92 92 E 5 7 30.47 1032 10 16.0934 0 0
2:15 pm 14:15 Cloudy 46 7.5 44 6.4 93 93 NE 6 9 30.47 1032 10 16.0934 0 0
2:35 pm 14:35 Cloudy 46 7.6 44 6.4 92 92 ENE 6 9 30.47 1032 10 16.0934 0 0
2:55 pm 14:55 Cloudy 46 7.7 44 6.5 92 92 ENE 5 7 30.46 1031 10 16.0934 0 0
3:15 pm 15:15 Cloudy 46 7.8 44 6.6 92 92 ENE 5 7 30.45 1031 10 16.0934 0 0
3:35 pm 15:35 Cloudy 46 7.7 44 6.6 93 93 ENE 7 11 30.46 1031 10 16.0934 0 0
3:55 pm 15:55 Cloudy 46 7.7 44 6.6 93 93 ENE 5 7 30.46 1031 10 16.0934 0 0
4:15 pm 16:15 Cloudy with Light Rain 46 7.7 44 6.7 93 93 ENE 3 6 30.46 1031 7 11.26538 0 0
4:35 pm 16:35 Cloudy with Light Rain 46 7.6 44 6.8 95 95 ENE 3 6 30.46 1031 7 11.26538 0 0
4:55 pm 16:55 Cloudy 46 7.6 44 6.7 94 94 ENE 5 7 30.46 1031 10 16.0934 0 0
5:15 pm 17:15 Cloudy 46 7.5 44 6.8 95 95 ENE 3 6 30.46 1031 7 11.26538 0 0
5:35 pm 17:35 Cloudy 46 7.5 44 6.7 95 95 NE 3 6 30.46 1031 7 11.26538 0 0
5:55 pm 17:55 Cloudy 46 7.5 44 6.7 95 95 ENE 5 7 30.46 1031 7 11.26538 0 0
6:15 pm 18:15 Cloudy 46 7.6 44 6.8 95 95 ENE 6 9 30.45 1031 7 11.26538 0 0
6:35 pm 18:35 Cloudy 46 7.6 44 6.8 95 95 ENE 5 7 30.45 1031 7 11.26538 0 0
6:55 pm 18:55 Cloudy 46 7.6 44 6.7 94 94 E 5 7 30.45 1031 10 16.0934 0 0
7:15 pm 19:15 Cloudy 46 7.6 44 6.6 93 93 E 5 7 30.44 1031 10 16.0934 0 0
7:35 pm 19:35 Cloudy 46 7.6 43 6.3 92 92 E 12 19 30.43 1030 10 16.0934 0 0
7:55 pm 19:55 Cloudy 46 7.7 43 6 89 89 E 10 17 30.44 1031 10 16.0934 0 0
8:15 pm 20:15 Cloudy 46 7.5 42 5.8 89 89 E 12 19 30.43 1030 10 16.0934 0 0
8:35 pm 20:35 Cloudy 46 7.5 42 5.7 88 88 E 7 11 30.42 1030 10 16.0934 0 0
8:55 pm 20:55 Cloudy 45 7.4 42 5.6 88 88 E 7 11 30.42 1030 10 16.0934 0 0
9:15 pm 21:15 Cloudy 45 7.4 42 5.6 88 88 E 8 13 30.41 1030 10 16.0934 0 0
9:35 pm 21:35 Cloudy 45 7.4 42 5.6 88 88 ENE 5 7 30.41 1030 10 16.0934 0 0
9:55 pm 21:55 Cloudy 45 7.4 42 5.7 89 89 ENE 6 9 30.41 1030 10 16.0934 0 0
10:15 pm 22:15 Cloudy 45 7.4 42 5.7 89 89 E 7 11 30.4 1029 10 16.0934 0 0
10:35 pm 22:35 Cloudy with Light Rain 45 7.4 42 5.7 89 89 ENE 7 11 30.4 1029 10 16.0934 0 0
10:55 pm 22:55 Cloudy 45 7.4 42 5.8 90 90 E 6 9 30.39 1029 10 16.0934 0 0
11:15 pm 23:15 Cloudy 45 7.4 43 6 91 91 E 6 9 30.38 1029 10 16.0934 0 0
11:35 pm 23:35 Cloudy 45 7.4 43 5.9 90 90 E 7 11 30.37 1028 10 16.0934 0 0
11:55 pm 23:55 Cloudy 46 7.5 43 5.9 90 90 E 9 15 30.36 1028 10 16.0934 0 0

Powered by AerisWeather